sat.trackr.live / text

‹ back to catalog

STARLINK-2535

NORAD 48295 · 2021-036V

PAYLOAD ACTIVE UNKNOWN

§ Identity

Operator
Country
US
Launch date
2021-04-29
Launch site
AFETR
Launch vehicle
Mass (kg)
RCS (m²)

Purposes: comms

External: N2YO · Heavens-Above · Gunter

§ Orbital elements

Epoch: 2026-09-12T07:32:41.332128Z

Period
94.01 min
Inclination
53.1599°
Eccentricity
0.0001113
Mean motion
15.31700086 rev/d
Perigee alt
470.0 km
Apogee alt
471.5 km
Semi-major
6,848.9 km
B*
7.2444e-5
RAAN
287.0203°
Arg perigee
83.8152°
Mean anomaly
276.2976°
Rev number
29,700

§ Raw data

STARLINK-25351 48295U 21036V   26255.31436727  .00001884  00000+0  72444-4 0  99982 48295  53.1599 287.0203 0001113  83.8152 276.2976 15.31700086297005

JSON: /api/v1/satellites/48295 · /tle

For live sub-satellite position, see the globe view (requires WebGL).

§ Visibility from observer

Set your observer location to see the next 7 days of passes ≥ 10°. The values pass through the URL so the page stays shareable.

No JS? Fill the form by hand. The geolocation button needs JavaScript.